Location: Arcueil
(48.7999°N, 2.3326°E)
Time: 06:09:40
(UTC+00:00)

IGS 5A - Visible Passes

Search period start: 24 September 2023 00:00
Search period end: 04 October 2023 00:00
Orbit: 575 x 581 km, 97.4° (Epoch: 14 September)

Date Brightness Start Highest point End Pass type
(mag) Time Alt. Az. Time Alt. Az. Time Alt. Az.
24 Sep 5.6 19:27:31 10° SSW 19:31:02 27° W 19:34:34 10° NW visible
25 Sep 5.7 19:31:52 10° SSW 19:35:15 25° W 19:38:40 10° NW visible
26 Sep 5.9 19:36:14 10° SW 19:39:29 23° W 19:42:46 10° NW visible
27 Sep 6.0 19:40:36 10° SW 19:43:42 21° W 19:46:49 10° NW visible
28 Sep 3.7 18:08:27 10° SE 18:12:22 46° ENE 18:16:18 10° N visible
28 Sep 6.2 19:45:01 10° SW 19:47:55 19° W 19:50:51 10° NW visible
29 Sep 3.6 18:12:33 10° SSE 18:16:31 51° ENE 18:20:30 10° N visible
29 Sep 6.3 19:49:25 10° SW 19:52:07 17° W 19:54:52 10° NW visible
30 Sep 3.5 18:16:40 10° SSE 18:20:40 56° ENE 18:24:42 10° N visible
30 Sep 6.4 19:53:51 10° SW 19:56:20 15° W 19:58:49 10° NW visible
01 Oct 3.4 18:20:46 10° SSE 18:24:48 63° ENE 18:28:53 10° N visible
01 Oct 6.4 19:58:21 10° WSW 20:00:32 14° W 20:02:44 10° NW visible
02 Oct 3.3 18:24:53 10° SSE 18:28:56 70° ENE 18:33:02 10° N visible
02 Oct 6.5 20:02:53 10° WSW 20:04:44 13° W 20:06:35 10° WNW visible
03 Oct 3.3 18:28:59 10° SSE 18:33:05 77° ENE 18:37:11 10° N visible
03 Oct 6.6 20:07:31 10° WSW 20:08:55 11° W 20:10:19 10° WNW visible
